Other Public Products
Issued by NWS Grand Forks, ND

Home | Current Version | Previous Version | Text Only | Print | Product List | Glossary Off
Versions: 1 2 3 4 5 6 7 8 9 10 11 12 13 14 15 16 17 18 19 20 21 22 23 24 25 26 27 28 29 30 31 32 33 34 35 36 37 38 39 40 41 42 43 44 45 46 47 48 49 50

000
FPUS83 KFGF 072010
OPUFGF
PRAIRIE TO PINES WEATHER ROUNDUP
NATIONAL WEATHER SERVICE EASTERN NORTH DAKOTA/GRAND FORKS ND
300 PM CDT TUE JUL 07 2015

 **SATELLITE DATA USED TO AUGMENT SKY COVER AT AUTOMATED STATIONS**
 *****  WEATHER ACROSS EASTERN NORTH DAKOTA  *****

CITY           SKY/WX    TMP DP  RH WIND       PRES   REMARKS
GRAND FORKS    MOSUNNY   72  44  36 S6G16     30.10F
GRAND FORKS AF SUNNY     72  46  39 SW9       30.10F
GRAND CITY NWS   N/A     73 N/A N/A S9          N/A
BUXTON         NOT AVBL
DEVILS LAKE    SUNNY     70  45  40 SW12      30.08F
FARGO          SUNNY     72  44  36 S7        30.12F
WAHPETON ARPT  NOT AVBL
$$

 *****  WEATHER ACROSS CENTRAL AND WESTERN NORTH DAKOTA  *****

CITY           SKY/WX    TMP DP  RH WIND       PRES   REMARKS
JAMESTOWN      SUNNY     71  45  39 S12       30.11F
BISMARCK       SUNNY     73  56  54 S14       30.08F
MINOT          PTSUNNY   72  53  51 S10       30.04F HAZE
MINOT AFB      PTSUNNY   75  59  57 S12       30.03F
GARRISON         N/A     73  58  59 S13       30.05F
WILLISTON      MOSUNNY   80  51  36 S9G16     30.01F
DICKINSON      PTSUNNY   75  58  55 S18G24    30.02F
HETTINGER      PTSUNNY   76  57  51 S12G23    30.04F
$$

 *****  OTHER OBSERVATIONS NORTHEAST NORTH DAKOTA  *****

CITY           SKY/WX    TMP DP  RH WIND       PRES   REMARKS
WALHALLA       FAIR      72  50  46 MISG      30.07F
LANGDON        FAIR      72  52  49 SW12G18   30.09F
CAVALIER       FAIR      72  50  46 S14       30.08F
GRAFTON        FAIR      72  48  43 SW9G15    30.10F
CANDO          FAIR      72  46  40 SW9G16    30.08F
FORT TOTTEN      N/A     72  48  42 S8        29.95S
ROLLA            N/A     68  48  49 SW10G16   30.08F
RUGBY          NOT AVBL
 ***** THE ABOVE OBSERVATIONS ARE NON NWS ARE NOT QUALITY
        CONTROLLED AND MAY MIS-REPORT RAIN FOR SNOW...
$$

 *****  OTHER OBSERVATIONS SOUTHEAST NORTH DAKOTA *****

CITY           SKY/WX    TMP DP  RH WIND       PRES   REMARKS
COOPERSTOWN    NOT AVBL
VALLEY CITY    FAIR      70  45  40 S10G22    30.12F
OAKES            N/A     68  46  45 S10       30.13F
GWINNER        FAIR      72  46  40 S8        30.14F
BUFFALO        NOT AVBL
WYNDMERE         N/A     72  46  40 S5          N/A
 ***** THE ABOVE OBSERVATIONS ARE NON NWS ARE NOT QUALITY
       CONTROLLED AND MAY MIS-REPORT RAIN FOR SNOW...
$$

  *****  WEATHER ACROSS NORTHERN MINNESOTA  *****

CITY           SKY/WX    TMP DP  RH WIND       PRES   REMARKS
FLAG ISLAND    SUNNY     70  54  56 S10G18    30.06F
WARROAD        SUNNY     68  50  52 SW8       30.10F
ROSEAU         SUNNY     70  52  52 SW10      30.10F
HALLOCK        SUNNY     72  48  43 S8G16     30.09F
THF RVR FALLS  SUNNY     66  45  45 CALM      30.12F
HALSTAD        NOT AVBL
FOSSTON        SUNNY     70  48  46 CALM      30.14F
BAUDETTE       SUNNY     71  45  39 NW9       30.10F
WASKISH        SUNNY     70  48  46 SW9       30.12F
CROOKSTON      SUNNY     70  46  43 S5        30.12F
$$
  *****  WEATHER ACROSS CENTRAL AND WEST MINNESOTA  *****

CITY           SKY/WX    TMP DP  RH WIND       PRES   REMARKS
BEMIDJI        SUNNY     69  46  44 CALM      30.13F
PARK RAPIDS    SUNNY     71  43  36 W7        30.14F
WADENA         SUNNY     70  43  37 CALM      30.14F
DETROIT LAKES  SUNNY     70  37  30 SW7       30.16F
MOORHEAD       SUNNY     70  46  43 SW7       30.14F
FERGUS FALLS   SUNNY     68  43  40 CALM      30.14F
ELBOW LAKE     FAIR      68  45  43 SW6       30.15F
MORRIS MN      MOSUNNY   70  46  43 SE5       30.15F
STAPLES        SUNNY     70  37  30 W3        30.14F
WHEATON        SUNNY     68  46  45 E5        30.17F
$$
  *****  WEATHER ELSEWHERE ACROSS MINNESOTA  *****

CITY           SKY/WX    TMP DP  RH WIND       PRES   REMARKS
DULUTH         SUNNY     71  45  39 VRB7G20   30.12S
INTRNTL FALLS  SUNNY     71  45  39 VRB3      30.09F
ELY            SUNNY     68  37  32 W7        30.10F
CLOQUET        MOSUNNY   70  41  35 W8        30.13S
BRAINERD       SUNNY     68  41  37 VRB5      30.15F
HIBBING        SUNNY     70  41  34 NW7       30.12F
ALEXANDRIA     SUNNY     68  44  42 W5        30.17F
SAINT CLOUD    MOSUNNY   70  45  40 N7        30.14F
MINNEAPOLIS    PTSUNNY   68  47  46 N8G16     30.14F
$$

  *****  WEATHER ACROSS SOUTH DAKOTA  *****

CITY           SKY/WX    TMP DP  RH WIND       PRES   REMARKS
SIOUX FALLS    MOSUNNY   68  49  50 E6        30.16F
BROOKINGS      SUNNY     64  46  52 S12       30.19S
WATERTOWN      SUNNY     68  47  46 S7        30.16F
HURON          SUNNY     70  45  40 S8        30.15F
SISSETON         N/A     69  44  40 VRB6      30.14F
ABERDEEN       SUNNY     72  42  34 S8        30.14F
MITCHELL       MOSUNNY   70  46  42 VRB5      30.17F
PIERRE         SUNNY     74  58  57 SE17      30.08F
MOBRIDGE       SUNNY     76  55  48 S14       30.08F
RAPID CITY     MOSUNNY   73  59  61 S21G26    30.07F
$$

  *****  SOME WEATHER IN NEARBY STATES *****

CITY           SKY/WX    TMP DP  RH WIND       PRES   REMARKS
GLASGOW MT     CLOUDY    79  44  28 W8        30.00F
GREAT FALLS MT CLOUDY    63  54  72 N9        30.15F
CHEYENNE WY    CLOUDY    63  52  67 S13       30.19F HAZE
SCOTTSBLUFF NE CLOUDY    70  53  54 S18       30.12F
OMAHA NE       MOSUNNY   71  52  50 NE14      30.12F
DES MOINES IA  PTSUNNY   72  50  45 NE9G21    30.09F
DAVENPORT IA   PTSUNNY   69  56  62 NE9       30.05S
CHICAGO IL     PTSUNNY   67  47  48 NE16G23   30.04R
EAU CLAIRE WI  PTSUNNY   70  47  43 VRB6      30.11F
LA CROSSE WI   PTSUNNY   69  46  43 N8G17     30.11S
$$

  *****  SOME NATIONAL WEATHER *****

CITY           SKY/WX    TMP DP  RH WIND       PRES   REMARKS
LA GUARDIA NY  MOSUNNY   84  71  65 S13G21    29.95F
RALEIGH NC     MOSUNNY   90  70  51 SW13      30.08F HX  95
ATLANTA GA     MOSUNNY   89  69  51 SW9       30.14F HX  93
NEW ORLEANS LA MOSUNNY   92  75  57 SE10      30.10F HX 103
OKLAHOMA CITY  LGT RAIN  70  69  97 N13       30.00S FOG
ALBUQUERQUE NM MOSUNNY   77  55  46 SW9       30.16F
SALT LAKE CITY CLOUDY    84  52  33 SW6       29.99F
LOS ANGELES CA PTSUNNY   70  62  76 W14       29.98F
BOISE ID       MOSUNNY   90  47  22 N10G17    29.95F
SEATTLE WA     PTSUNNY   72  54  53 S5        30.02F
$$

*** WEATHER ACROSS MANITOBA...SASKATCHEWAN AND ONTARIO ***
                ***ONTARIO***

CITY           SKY/WX    TMP DP  RH WIND       PRES   REMARKS
GERALDTON      MOSUNNY   72  48  43 NW12G18   29.98S
THUNDER BAY    MOSUNNY   72  46  40 W6        30.03F
SIOUX LOOKOUT  MOSUNNY   72  46  40 W7        30.05F
TORONTO        SHOWER    75  72  88 SW12G21   29.82S
BIG TROUT LK   SUNNY     75  46  35 W15G24    29.83F
PICKLE LAKE    MOSUNNY   73  46  38 W9        29.96F
DRYDEN         SUNNY     72  43  35 SW13G21   30.06F
KENORA         MOSUNNY   70  45  40 W9        30.07F
$$
                *** MANITOBA***

CITY           SKY/WX    TMP DP  RH WIND       PRES   REMARKS
BRANDON        CLOUDY    70  52  52 SW12      30.03F
DAUPHIN        SUNNY     72  52  49 SW13G21   29.93F
ISLAND LAKE    PTSUNNY   73  48  40 SW12G22   29.82F
PILOT MOUND      N/A     68  48  49 SW10        N/A
THE PAS        CLOUDY    64  48  55 NW10      29.89F
THOMPSON       LGT RAIN  50  46  87 NW9G18    29.84R
WINNIPEG       MOSUNNY   72  52  49 SW15G22   30.05F
LYNN LAKE      PTSUNNY   59  39  47 NW17G26   29.87S
CHURCHILL      LGT RAIN  46  45  93 NW16      29.69R
GILLAM         SMOKE     64  54  68 W13G20    29.67S VSB 1
$$
                ***SASKATCHEWAN***

CITY           SKY/WX    TMP DP  RH WIND       PRES   REMARKS
ESTEVAN        PTSUNNY   75  54  46 SW15      29.99F
KINDERSLEY     PTSUNNY   66  50  55 N14       30.07F
LLOYDMINSTER   PTSUNNY   61  37  41 N6        30.09F
PRINCE ALBERT  CLOUDY    61  45  55 N12G21    30.01S SMOKE
REGINA         PTSUNNY   75  50  41 SW13G20   29.95F
YORKTON        MOSUNNY   75  52  43 SW16      29.92F


USA.gov is the U.S. government's official web portal to all federal, state and local government web resources and services.